When you browse on this site, cookies collect data to enhance your experience and personalize the content and advertising you see.
Visit our Privacy Policy to learn more. By continuing to use the site, you agree to this use of cookies and data.

Stündliche Wetter Treschevo

Heute, 9 Juli, Donnerstag

Zeit Temperatur Niederschläge Wind Luftdruck Luftfeuchtigkeit
00:00 +16°C° 0.9 mm 6 m/S 735 mmHg 96%
01:00 +15°C° 1.5 mm 5 m/S 735 mmHg 96%
02:00 +15°C° 1.5 mm 5 m/S 735 mmHg 96%
03:00 +13°C° 0 mm 3 m/S 736 mmHg 92%
04:00 +13°C° 0.3 mm 4 m/S 736 mmHg 92%
05:00 +13°C° 0.3 mm 4 m/S 736 mmHg 93%
06:00 +12°C° 0.3 mm 5 m/S 736 mmHg 93%
07:00 +13°C° 0 mm 5 m/S 737 mmHg 90%
08:00 +14°C° 0 mm 5 m/S 737 mmHg 88%
09:00 +15°C° 0 mm 5 m/S 738 mmHg 85%
10:00 +16°C° 0 mm 5 m/S 738 mmHg 80%
11:00 +17°C° 0 mm 5 m/S 739 mmHg 75%
12:00 +20°C° 0 mm 4 m/S 739 mmHg 71%
13:00 +20°C° 0 mm 4 m/S 739 mmHg 69%
14:00 +20°C° 0 mm 4 m/S 739 mmHg 67%
15:00 +21°C° 0 mm 3 m/S 740 mmHg 65%
16:00 +21°C° 0.1 mm 4 m/S 740 mmHg 68%
17:00 +20°C° 0.1 mm 4 m/S 740 mmHg 71%
18:00 +20°C° 0.1 mm 4 m/S 740 mmHg 74%
19:00 +18°C° 0 mm 3 m/S 740 mmHg 78%
20:00 +17°C° 0 mm 3 m/S 740 mmHg 82%
21:00 +15°C° 0 mm 2 m/S 740 mmHg 87%
22:00 +14°C° 0 mm 3 m/S 741 mmHg 88%
23:00 +13°C° 0 mm 3 m/S 741 mmHg 89%

Morgen, 10 Juli, Freitag

Zeit Temperatur Niederschläge Wind Luftdruck Luftfeuchtigkeit
00:00 +13°C° 0 mm 3 m/S 742 mmHg 91%
01:00 +12°C° 0 mm 3 m/S 742 mmHg 91%
02:00 +12°C° 0 mm 3 m/S 742 mmHg 92%
03:00 +12°C° 0 mm 2 m/S 742 mmHg 92%
04:00 +12°C° 0 mm 2 m/S 743 mmHg 91%
05:00 +12°C° 0 mm 3 m/S 743 mmHg 90%
06:00 +12°C° 0 mm 3 m/S 743 mmHg 88%
07:00 +13°C° 0 mm 3 m/S 744 mmHg 82%
08:00 +16°C° 0 mm 2 m/S 744 mmHg 76%
09:00 +18°C° 0 mm 2 m/S 744 mmHg 70%
10:00 +18°C° 0 mm 3 m/S 744 mmHg 67%
11:00 +19°C° 0 mm 3 m/S 745 mmHg 64%
12:00 +20°C° 0 mm 3 m/S 745 mmHg 61%
13:00 +20°C° 0 mm 3 m/S 745 mmHg 61%
14:00 +21°C° 0 mm 3 m/S 744 mmHg 60%
15:00 +21°C° 0 mm 3 m/S 744 mmHg 60%
16:00 +21°C° 0 mm 3 m/S 744 mmHg 63%
17:00 +21°C° 0 mm 3 m/S 744 mmHg 66%
18:00 +21°C° 0 mm 2 m/S 745 mmHg 69%
19:00 +19°C° 0 mm 2 m/S 745 mmHg 72%
20:00 +18°C° 0 mm 2 m/S 745 mmHg 76%
21:00 +17°C° 0 mm 2 m/S 745 mmHg 80%
22:00 +16°C° 0 mm 3 m/S 745 mmHg 81%
23:00 +16°C° 0 mm 3 m/S 745 mmHg 81%

übermorgen, 11 Juli, Samstag

Zeit Temperatur Niederschläge Wind Luftdruck Luftfeuchtigkeit
00:00 +14°C° 0 mm 3 m/S 745 mmHg 82%
01:00 +14°C° 0 mm 3 m/S 745 mmHg 83%
02:00 +13°C° 0 mm 3 m/S 745 mmHg 84%
03:00 +13°C° 0 mm 3 m/S 745 mmHg 85%
04:00 +13°C° 0 mm 3 m/S 745 mmHg 85%
05:00 +14°C° 0 mm 3 m/S 745 mmHg 84%
06:00 +14°C° 0 mm 3 m/S 746 mmHg 84%
07:00 +17°C° 0 mm 4 m/S 746 mmHg 81%
08:00 +19°C° 0 mm 4 m/S 746 mmHg 78%
09:00 +20°C° 0 mm 5 m/S 746 mmHg 74%
10:00 +21°C° 0 mm 5 m/S 746 mmHg 73%
11:00 +23°C° 0 mm 5 m/S 746 mmHg 71%
12:00 +25°C° 0 mm 5 m/S 746 mmHg 69%
13:00 +25°C° 0 mm 5 m/S 745 mmHg 69%
14:00 +25°C° 0 mm 5 m/S 745 mmHg 69%
15:00 +26°C° 0 mm 5 m/S 745 mmHg 69%
16:00 +26°C° 0 mm 5 m/S 745 mmHg 72%
17:00 +25°C° 0 mm 4 m/S 744 mmHg 74%
18:00 +25°C° 0 mm 4 m/S 744 mmHg 77%
19:00 +24°C° 0 mm 3 m/S 744 mmHg 81%
20:00 +22°C° 0 mm 3 m/S 744 mmHg 85%
21:00 +20°C° 0 mm 3 m/S 744 mmHg 89%
22:00 +20°C° 0 mm 3 m/S 744 mmHg 89%
23:00 +19°C° 0 mm 3 m/S 744 mmHg 90%

12 Juli, Sonntag

Zeit Temperatur Niederschläge Wind Luftdruck Luftfeuchtigkeit
00:00 +18°C° 0 mm 3 m/S 744 mmHg 90%
01:00 +18°C° 0 mm 3 m/S 744 mmHg 90%
02:00 +18°C° 0 mm 3 m/S 744 mmHg 90%
03:00 +17°C° 0 mm 3 m/S 744 mmHg 90%
04:00 +17°C° 0 mm 3 m/S 744 mmHg 89%
05:00 +18°C° 0 mm 2 m/S 743 mmHg 88%
06:00 +18°C° 0 mm 2 m/S 743 mmHg 87%
07:00 +20°C° 0 mm 2 m/S 743 mmHg 82%
08:00 +21°C° 0 mm 2 m/S 743 mmHg 78%
09:00 +24°C° 0 mm 2 m/S 743 mmHg 73%
10:00 +25°C° 0 mm 2 m/S 743 mmHg 70%
11:00 +26°C° 0 mm 3 m/S 743 mmHg 67%
12:00 +27°C° 0 mm 3 m/S 743 mmHg 64%
13:00 +27°C° 0 mm 3 m/S 743 mmHg 63%
14:00 +27°C° 0 mm 3 m/S 742 mmHg 62%
15:00 +27°C° 0 mm 3 m/S 742 mmHg 62%
16:00 +27°C° 0 mm 3 m/S 742 mmHg 64%
17:00 +27°C° 0 mm 2 m/S 741 mmHg 67%
18:00 +26°C° 0 mm 2 m/S 741 mmHg 69%
19:00 +25°C° 0 mm 2 m/S 741 mmHg 73%
20:00 +23°C° 0 mm 1 m/S 741 mmHg 76%
21:00 +21°C° 0 mm 1 m/S 741 mmHg 79%
22:00 +21°C° 0 mm 1 m/S 740 mmHg 79%
23:00 +20°C° 0 mm 1 m/S 740 mmHg 80%

13 Juli, Montag

Zeit Temperatur Niederschläge Wind Luftdruck Luftfeuchtigkeit
00:00 +19°C° 0 mm 1 m/S 740 mmHg 80%
01:00 +19°C° 0 mm 1 m/S 740 mmHg 81%
02:00 +16°C° 0 mm 0 m/S 739 mmHg 82%
03:00 +16°C° 0 mm 0 m/S 739 mmHg 83%
04:00 +18°C° 0 mm 1 m/S 739 mmHg 83%
05:00 +19°C° 0 mm 1 m/S 739 mmHg 83%
06:00 +19°C° 0 mm 1 m/S 739 mmHg 83%
07:00 +21°C° 0 mm 1 m/S 739 mmHg 79%
08:00 +22°C° 0 mm 1 m/S 738 mmHg 74%
09:00 +23°C° 0 mm 1 m/S 738 mmHg 70%
10:00 +24°C° 0 mm 2 m/S 738 mmHg 68%
11:00 +26°C° 0 mm 2 m/S 738 mmHg 66%
12:00 +27°C° 0 mm 2 m/S 738 mmHg 63%
13:00 +27°C° 0 mm 3 m/S 738 mmHg 64%
14:00 +27°C° 0 mm 3 m/S 737 mmHg 66%
15:00 +27°C° 0 mm 3 m/S 737 mmHg 67%
16:00 +27°C° 1.1 mm 3 m/S 736 mmHg 71%
17:00 +26°C° 1.1 mm 2 m/S 736 mmHg 76%
18:00 +26°C° 1.1 mm 2 m/S 736 mmHg 80%
19:00 +24°C° 4.5 mm 2 m/S 735 mmHg 84%
20:00 +22°C° 4.5 mm 3 m/S 735 mmHg 89%
21:00 +20°C° 4.5 mm 4 m/S 735 mmHg 93%
22:00 +20°C° 0 mm 3 m/S 735 mmHg 93%
23:00 +20°C° 0 mm 3 m/S 734 mmHg 93%

14 Juli, Dienstag

Zeit Temperatur Niederschläge Wind Luftdruck Luftfeuchtigkeit
00:00 +19°C° 0 mm 3 m/S 734 mmHg 94%
01:00 +19°C° 0.1 mm 3 m/S 734 mmHg 94%
02:00 +19°C° 0.1 mm 3 m/S 734 mmHg 95%
03:00 +19°C° 0.1 mm 3 m/S 733 mmHg 96%
04:00 +19°C° 0.5 mm 3 m/S 733 mmHg 96%
05:00 +19°C° 0.5 mm 3 m/S 733 mmHg 96%
06:00 +20°C° 0.5 mm 3 m/S 733 mmHg 97%
07:00 +20°C° 0.1 mm 4 m/S 733 mmHg 96%
08:00 +20°C° 0.1 mm 4 m/S 733 mmHg 95%
09:00 +20°C° 0.1 mm 4 m/S 733 mmHg 94%
10:00 +20°C° 0.2 mm 4 m/S 732 mmHg 94%
11:00 +20°C° 0.2 mm 4 m/S 732 mmHg 94%
12:00 +20°C° 0.2 mm 3 m/S 732 mmHg 94%
13:00 +21°C° 0.6 mm 3 m/S 732 mmHg 91%
14:00 +22°C° 0.6 mm 4 m/S 732 mmHg 88%
15:00 +23°C° 0.6 mm 4 m/S 732 mmHg 85%
16:00 +23°C° 0.5 mm 4 m/S 731 mmHg 86%
17:00 +22°C° 0.5 mm 3 m/S 731 mmHg 87%
18:00 +22°C° 0.5 mm 3 m/S 731 mmHg 88%
19:00 +21°C° 0.4 mm 3 m/S 731 mmHg 90%
20:00 +21°C° 0.4 mm 3 m/S 731 mmHg 91%
21:00 +20°C° 0.4 mm 3 m/S 731 mmHg 93%
22:00 +19°C° 0 mm 3 m/S 731 mmHg 94%
23:00 +18°C° 0 mm 3 m/S 731 mmHg 94%
Mehr zeigen